This demonstration page uses our WeatherBlox Daily Observations layout. Learn more.

Left ArrowRight Arrow

36.17497, -115.13722

Hourly Observations for September 28, 2021

Temp ( °F °C ) Dew Point ( °F °C ) Humidity (%) Winds ( mph kmh ) Pressure ( in mb ) Visibility ( mi km ) Precip ( " mm )
12:53 am 00:53 Clear 77 25 51 10.6 40 40 ESE 3 6 29.76 1008 10 16 N/A
1:53 am 01:53 Clear 79 26.1 44 6.7 29 29 S 6 9 29.75 1008 10 16 N/A
2:53 am 02:53 Clear 77 25 45 7.2 32 32 SSE 10 17 29.74 1007 10 16 N/A
3:53 am 03:53 Clear 77 25 44 6.7 31 31 SSE 13 20 29.73 1007 10 16 N/A
4:53 am 04:53 Clear 77 25 43 6.1 30 30 SSE 12 19 29.72 1007 10 16 N/A
5:53 am 05:53 Clear 75 23.9 41 5 29 29 SE 8 13 29.72 1007 10 16 N/A
6:53 am 06:53 Sunny 75 23.9 40 4.4 28 28 SSE 7 11 29.72 1007 10 16 N/A
7:53 am 07:53 Sunny with Smoke 75 23.9 40 4.4 28 28 SSE 7 11 29.75 1007 10 16 N/A
8:53 am 08:53 Sunny with Smoke 78 25.6 40 4.4 26 26 SSE 9 15 29.76 1008 10 16 N/A
9:53 am 09:53 Sunny with Smoke 79 26.1 40 4.4 25 25 SSE 3 6 29.76 1008 10 16 N/A
10:53 am 10:53 Sunny with Smoke 81 27.2 41 5 24 24 N N/A 29.75 1008 10 16 N/A
11:53 am 11:53 Sunny with Smoke 87 30.6 37 2.8 17 17 S 13 20 29.71 1006 10 16 N/A
12:10 pm 12:10 Sunny with Smoke 87 30.6 35 1.7 16 16 SSW 17 28 29.58 1002 10 16 N/A
12:53 pm 12:53 Sunny with Smoke 87 30.6 35 1.7 16 16 S 14 22 29.70 1006 10 16 N/A
1:53 pm 13:53 Sunny with Smoke 88 31.1 37 2.8 16 16 S 9 15 29.67 1005 10 16 N/A
2:53 pm 14:53 Sunny with Smoke 89 31.7 34 1.1 14 14 S 13 20 29.64 1004 10 16 N/A
3:53 pm 15:53 Sunny with Smoke 88 31.1 34 1.1 15 15 SSW 15 24 29.64 1004 10 16 N/A
4:53 pm 16:53 Sunny with Smoke 88 31.1 37 2.8 16 16 SSW 15 24 29.63 1003 10 16 N/A
5:53 pm 17:53 Sunny with Smoke 86 30 35 1.7 16 16 SW 16 26 29.65 1004 10 16 N/A
6:53 pm 18:53 Clear with Smoke 84 28.9 36 2.2 18 18 SW 12 19 29.67 1005 10 16 N/A
7:53 pm 19:53 Clear with Smoke 83 28.3 37 2.8 19 19 SW 12 19 29.69 1005 10 16 N/A
8:53 pm 20:53 Clear with Smoke 81 27.2 37 2.8 21 21 SSW 8 13 29.70 1006 10 16 N/A
9:53 pm 21:53 Clear with Smoke 79 26.1 38 3.3 23 23 WNW 7 11 29.73 1007 10 16 N/A
10:53 pm 22:53 Clear with Smoke 79 26.1 25 -3.9 14 14 NNW 7 11 29.74 1007 10 16 N/A
11:53 pm 23:53 Clear with Smoke 78 25.6 26 -3.3 15 15 NW 12 19 29.75 1007 10 16 N/A

Powered by AerisWeather